Miscellaneous Local Product
Issued by NWS North Platte, NE

Home | Current Version | Previous Version | Text Only | Print | Product List | Glossary On
Versions: 1 2 3 4 5 6 7 8 9 10 11 12 13 14 15 16 17 18 19 20 21 22 23 24 25 26 27 28 29 30 31 32 33 34 35 36 37 38 39 40 41 42 43 44 45 46 47 48 49 50
000
AXUS43 KLBF 291710
MISLBF


WESTERN AND NORTH CENTRAL NEBRASKA HOURLY WEATHER ROUNDUP
NATIONAL WEATHER SERVICE NORTH PLATTE NE
1200 PM CDT SUN MAY 29 2016

NOTE: "FAIR" INDICATES FEW OR NO CLOUDS BELOW 12,000 FEET WITH NO
SIGNIFICANT WEATHER AND/OR OBSTRUCTIONS TO VISIBILITY.

NOTE: STATIONS NOT REPORTING VARIABLES SUCH AS SKY/WEATHER OR
PRESSURE ARE PROVIDED BY RAWS AND APRS NETWORKS AND ARE NOT UNDER
NATIONAL WEATHER SERVICE QUALITY CONTROL.

...OBSERVATIONS IN AND NEAR THE EASTERN PANHANDLE OF NEBRASKA...

CITY           SKY/WX    TMP DP  RH WIND       PRES   REMARKS
PINE RIDGE     SUNNY     71  45  39 SE9       30.09F
CHADRON        SUNNY     71  51  49 S5        30.08F
ALLIANCE       SUNNY     69  49  48 S9        30.11F
SIDNEY         SUNNY     74  46  36 SW8       30.14F
CRESCENT LAKE    N/A     70  50  49 S6G13       N/A
BIG SPRINGS      N/A     72  51  47 SW6         N/A
$$

...OBSERVATIONS IN NORTHERN NEBRASKA AND FAR SOUTHERN SOUTH DAKOTA...

CITY           SKY/WX    TMP DP  RH WIND       PRES   REMARKS
WINNER         FAIR      74  53  48 E6        30.08F
VALENTINE      SUNNY     71  49  45 VRB3      30.11F
THEDFORD       MOSUNNY   74  53  47 S10       30.13S
AINSWORTH      MOSUNNY   70  53  55 SE3       30.11F
O`NEILL        SUNNY     73  54  50 CALM      30.11S
ORD            MOSUNNY   74  57  55 CALM      30.09F
BROKEN BOW     SUNNY     73  53  49 CALM      30.11F
VALENTINE NWR    N/A     69  52  54 S3          N/A
BUTTE            N/A     72  57  59 E3          N/A
CHAMBERS         N/A     82  56  41 CALM        N/A
EWING            N/A     74  56  53 CALM        N/A
$$

...OBSERVATIONS IN SOUTHWEST NEBRASKA AND FAR NORTHEAST COLORADO...

CITY           SKY/WX    TMP DP  RH WIND       PRES   REMARKS
WRAY           FAIR      77  48  36 S8        30.12F
IMPERIAL       SUNNY     73  56  54 MISG      30.11F
OGALLALA       SUNNY     73  51  45 SW6       30.11F
NORTH PLATTE   SUNNY     73  56  54 S8        30.12F
MCCOOK         SUNNY     76  58  53 MISG      30.10F
LEXINGTON      SUNNY     73  58  59 CALM      30.11F
PAXTON           N/A     68  57  68 SE3         N/A
STAPLETON        N/A     75  56  51 CALM        N/A
GOTHENBURG       N/A     72  52  48 E3          N/A
CALLAWAY         N/A     73  58  59 S3          N/A
$$

...OBSERVATIONS IN CENTRAL LINCOLN COUNTY AREA...

CITY           SKY/WX    TMP DP  RH WIND       PRES   REMARKS
N.P. AIRPORT   SUNNY     73  56  54 S8        30.12F
N.P. DOWNTOWN    N/A     73  57  57 CALM        N/A
N.P. SOUTHEAST   N/A     74  58  56 CALM        N/A
N.P. HILLCREST   N/A     71  56  59 SE5         N/A
$$

...SOME OBSERVATIONS FROM AROUND THE REGION...

CITY           SKY/WX    TMP DP  RH WIND       PRES   REMARKS
DENVER         MOSUNNY   69  40  34 CALM      30.16F
LARAMIE        SUNNY     63  34  33 S9        30.23F
CHEYENNE       SUNNY     69  36  29 S12       30.19S
SCOTTSBLUFF    SUNNY     69  50  50 S5        30.12F
RAPID CITY     PTSUNNY   69  50  50 SE7       30.10S
BISMARCK       SUNNY     72  45  37 NW9       30.02F
PIERRE         SUNNY     71  52  50 VRB3      30.06S
SIOUX FALLS    MOSUNNY   73  59  61 W10       30.06R
OMAHA          MOSUNNY   76  58  53 S5        30.09S
GRAND ISLAND   SUNNY     77  53  43 SW6       30.11S
KANSAS CITY    MOSUNNY   80  62  54 VRB5      30.13S
WICHITA        CLOUDY    81  71  71 S12       30.11S
OKLAHOMA CITY  MOSUNNY   83  59  44 VRB7      30.15S
DALLAS         CLOUDY    82  68  62 S5        30.08S
AMARILLO       SUNNY     79  59  50 SW17G24   30.19R
DODGE CITY     MOSUNNY   78  54  43 S15       30.14R
HAYS           SUNNY     81  59  47 S9        30.10S
GOODLAND       SUNNY     76  52  43 S16G22    30.12F
$$




USA.gov is the U.S. government's official web portal to all federal, state and local government web resources and services.